Regional Weather Roundup
Issued by NWS

Home | Current Version | Previous Version | Text Only | Print | Product List | Glossary Off
Versions: 1 2 3 4 5 6 7 8 9 10 11 12 13 14 15 16 17 18 19 20 21 22 23 24 25 26 27 28 29 30 31 32 33 34 35 36 37 38 39 40 41 42 43 44 45 46 47 48 49 50

804
ASUS44 KJAN 250303
RWRMS

MISSISSIPPI HOURLY WEATHER ROUNDUP
NATIONAL WEATHER SERVICE JACKSON MS
1000 PM CDT THU APR 24 2014

NOTE: "FAIR: INDICATES FEW OR NO CLOUDS BELOW 12,000 FEET WITH NO
SIGNIFICANT WEATHER AND/OR OBSTRUCTIONS TO VISIBILITY.

MSZ001>002-007>008-010>013-018>021-025>028-034>036-250400-
NORTHWEST MISSISSIPPI

CITY           SKY/WX    TMP DP  RH WIND       PRES   REMARKS
CLARKSDALE       N/A     68  68 100 S10       29.79R
CLEVELAND      MOCLDY    67  67  99 S14       29.78R
GREENWOOD      CLOUDY    66  64  93 S8        29.80F
GREENVILLE     HVY RAIN  69  65  86 W17G33    29.81R FOG
GRENADA        MOCLDY    64  63  94 CALM      29.82F
OLIVE BRANCH   MOCLDY    64 N/A N/A S6        29.79R
OXFORD         MOCLDY    64  63  94 SW5       29.83R
TUNICA         CLOUDY    68  64  88 S9        29.79R
$$

MSZ003>006-009-014>017-022>024-029>033-037>039-250400-
NORTHEAST MISSISSIPPI

CITY           SKY/WX    TMP DP  RH WIND       PRES   REMARKS
BELMONT        MOCLDY    71  59  65 SW16G23   29.81R
COLUMBUS AFB   LGT RAIN  67  63  87 SE10      29.79F
CORINTH        LGT RAIN  64  61  88 SW5       29.82R
GOLDN TRIANGLE CLOUDY    72  57  60 SE5       29.85S
STARKVILLE     TSTM      70  59  68 S6        29.81R
TUPELO         LGT RAIN  72  59  63 VRB7      29.81R
$$

MSZ040-058-250400-
CENTRAL MISSISSIPPI

CITY           SKY/WX    TMP DP  RH WIND       PRES   REMARKS
JACKSON INTL   CLOUDY    75  64  68 S9        29.86R
JACKSON HAWKNS LGT RAIN  76  63  64 SW10      29.86R
MERIDIAN KEY   PTCLDY    71  60  68 S10       29.86S
MERIDIAN NAS   MOCLDY    72  58  61 S8        29.86R
RAYMOND        MOCLDY    75  72  88 SW9G16    29.85R
VICKSBURG      CLOUDY    77  65  66 W9        29.86R
$$

MSZ059>079-250400-
SOUTH MISSISSIPPI

CITY           SKY/WX    TMP DP  RH WIND       PRES   REMARKS
BROOKHAVEN     MOCLDY    73  66  78 SW7       29.90R
HATTIESBURG    CLEAR     71  65  81 S9        29.91R
MCCOMB         CLOUDY    72  65  78 SW7       29.90R
NATCHEZ        CLOUDY    73  63  68 SW9       29.89R
PINE BELT      PTCLDY    70  64  83 S12       29.91R
$$

MSZ080>082-250400-
COASTAL MISSISSIPPI

CITY           SKY/WX    TMP DP  RH WIND       PRES   REMARKS
BILOXI         CLEAR     72  67  85 S12       29.92S
PASCAGOULA     CLOUDY    71  66  84 S5        29.94R
GULFPORT       CLEAR     74  66  76 S7        29.92S
$$



USA.gov is the U.S. government's official web portal to all federal, state and local government web resources and services.